[[{"header":{"parameterUnit":"m.s-1","parameterCategory":1,"la1":30.2991,"la2":30.254,"lo1":-89.0895,"lo2":-89.0444,"dx":0.0017,"dy":0.0017,"nx":28,"ny":28,"refTime":"2023-01-09T03:00:00:Z","depth":0,"parameterNumber":2,"parameterNumberName":"U-component_of_WINDS"},"data":[0,0,0,0,0,0,0,0,0,0,0,0,0,0,0,0,0,0,0,0,0,0,0,0,0,0,0,0,0,0,0,0,0,0,0,0,0,0,0,0,0,0,0,0,0,0,0,0,0,0,0,0,0,0,0,0,0,0,1.8266,1.8269,0,1.8478,1.848,1.8482,1.8584,1.8584,1.8584,1.8584,1.8805,1.881,1.8816,0,0,0,0,0,0,0,0,0,0,0,0,0,1.7955,1.796,1.8266,1.8269,1.8272,1.8477,1.848,1.8483,1.8584,1.8584,1.8584,1.8584,1.8803,1.881,1.8817,0,0,0,0,0,0,0,0,0,0,0,0,0,1.812,1.7961,1.8266,1.8347,1.8356,1.8477,1.848,1.8484,1.8584,1.8584,1.8584,1.8584,1.88,1.8809,1.8818,1.8875,0,0,1.8845,1.8849,0,0,0,0,0,0,0,0,1.8111,1.8132,1.8332,1.8341,1.8352,1.8504,1.8451,1.8615,1.8584,1.8498,1.8584,1.8584,1.8705,1.8722,1.8762,1.8886,1.8895,1.8846,1.8851,1.8855,1.8858,0,0,0,0,0,0,0,1.8099,1.8123,1.835,1.8335,1.8347,1.8374,1.8397,1.8483,1.86,1.8505,1.8513,1.8536,1.8711,1.8753,1.8768,1.8899,1.8846,1.8854,1.8859,1.8863,1.9081,1.9081,0,0,0,0,0,0,1.8074,1.8113,1.8343,1.8356,1.8228,1.8379,1.8406,1.8456,1.8599,1.8621,1.8536,1.854,1.8738,1.8757,1.8776,1.8853,1.8855,1.8864,1.8869,1.908,1.9081,1.9081,0,0,0,0,0,0,1.8067,1.8093,1.8335,1.8237,1.827,1.8385,1.844,1.846,1.8502,1.8622,1.8644,1.8558,1.8739,1.8763,1.885,1.8862,1.8868,1.8876,1.908,1.9081,1.9081,1.9008,0,0,0,0,0,0,1.8057,1.809,1.8112,1.8236,1.8274,1.8403,1.8441,1.8464,1.8517,1.8524,1.8649,1.8669,1.874,1.8836,1.8859,1.8875,1.8883,1.9079,1.908,1.9081,1.901,1.9006,1.9003,0,0,0,0,0,1.8046,1.8084,1.8113,1.814,1.8304,1.8404,1.8426,1.8506,1.8517,1.8541,1.8618,1.8665,1.8857,1.8844,1.887,1.8889,1.9079,1.908,1.9081,1.9011,1.9007,1.9003,0,0,0,0,0,0,1.7961,1.8102,1.8136,1.8215,1.8296,1.8421,1.8454,1.8498,1.858,1.8583,1.868,1.8708,1.8785,1.8846,1.8829,1.8953,1.8972,1.8979,1.891,1.8907,1.8903,1.8888,1.889,0,0,0,0,0,1.7951,1.8018,1.8139,1.8198,1.8237,1.8337,1.8384,1.8438,1.8527,1.8563,1.8647,1.8732,1.8812,1.8863,1.8943,1.9018,1.9048,1.9045,1.9041,1.9038,1.9042,1.9088,1.9088,1.9085,1.9085,1.9085,0,0,1.7932,1.8017,1.8055,1.8183,1.8252,1.8321,1.8366,1.8438,1.8491,1.8575,1.8661,1.8725,1.8827,1.8908,1.8948,1.8961,1.9049,1.9039,1.9035,1.9042,1.9089,1.9089,1.9089,1.9085,1.9085,1.9085,0,0,1.7933,1.8003,1.806,1.8128,1.8233,1.8299,1.8312,1.843,1.8476,1.8563,1.8628,1.8692,1.8828,1.8898,1.8951,1.8977,1.9024,1.9001,1.8983,1.9026,1.9026,1.9027,1.9037,1.9039,1.9005,1.9005,1.9005,0,1.7896,1.8002,1.8084,1.8152,1.8207,1.8284,1.8342,1.8405,1.853,1.8567,1.8579,1.875,1.8825,1.8924,1.893,1.897,1.899,1.8988,1.9019,1.9021,1.9023,1.9034,1.9037,1.9001,1.9002,1.9002,1.9002,0,1.7953,1.8025,1.8058,1.8175,1.8234,1.8297,1.8389,1.8439,1.8488,1.8553,1.8642,1.8734,1.8833,1.8861,1.891,1.8967,1.8972,1.9,1.9022,1.9018,1.903,1.9035,1.8996,1.8998,1.8999,1.9,0,0,1.7907,1.8068,1.8079,1.8133,1.8253,1.8311,1.8377,1.8473,1.8514,1.8598,1.8657,1.8769,1.8796,1.8856,1.8914,1.8951,1.8967,1.8976,1.898,1.8972,1.9036,1.9014,1.9018,1.8998,1.8999,1.9,1.9028,0,1.7925,1.8047,1.8122,1.8213,1.8282,1.8355,1.8413,1.8494,1.8557,1.8625,1.8695,1.8773,1.8802,1.8839,1.8879,1.8956,1.8981,1.8955,1.9055,1.9058,1.9028,1.9024,1.9002,1.9024,1.9033,1.9034,1.9034,0,1.7963,1.8043,1.814,1.8252,1.8284,1.8335,1.8429,1.8492,1.8585,1.8629,1.8695,1.8753,1.8828,1.8842,1.8947,1.8927,1.8972,1.9016,1.9019,1.9033,1.9046,1.9038,1.9033,1.9036,1.9042,1.9042,1.9041,0,1.7921,1.8053,1.8129,1.8172,1.8305,1.8339,1.8396,1.8488,1.8541,1.8624,1.8659,1.875,1.88,1.8869,1.895,1.8953,1.9047,1.9068,1.9087,1.9084,1.9104,1.9102,1.9107,1.9131,1.9131,1.9131,1.9131,0,1.7934,1.7991,1.8111,1.8158,1.8224,1.831,1.8374,1.8438,1.8519,1.858,1.865,1.8706,1.8809,1.8879,1.8943,1.902,1.9042,1.908,1.9097,1.9075,1.907,1.9107,1.9108,1.9132,1.9132,1.9132,1.9131,0,1.7899,1.7981,1.8069,1.8186,1.8217,1.826,1.8362,1.8411,1.8476,1.8553,1.8576,1.868,1.8765,1.8852,1.8968,1.9011,1.9087,1.9109,1.9055,1.9065,1.9078,1.9076,1.9108,1.9117,1.9133,1.9133,1.9133,0,1.7902,1.7948,1.8069,1.8114,1.8169,1.8241,1.8294,1.8381,1.8434,1.8543,1.8579,1.8669,1.8745,1.8878,1.8965,1.9054,1.908,1.9085,1.9094,1.907,1.9081,1.9078,1.9083,1.9082,1.9081,1.9081,1.908,0,1.79,1.7938,1.8012,1.81,1.8161,1.8235,1.8312,1.8345,1.8447,1.8504,1.8591,1.865,1.8767,1.8856,1.8955,1.9016,1.9065,1.9076,1.9086,1.9064,1.9031,1.905,1.9047,1.9076,1.9076,1.9076,1.9077,1.9077,1.7885,1.7929,1.802,1.8101,1.8167,1.8236,1.8288,1.8359,1.8433,1.8533,1.8581,1.8668,1.876,1.8898,1.8957,1.9028,1.9042,1.9055,1.9059,1.9061,1.9056,1.9018,1.9047,1.9047,1.9047,1.9047,1.9047,0,1.7887,1.7949,1.8021,1.8126,1.8188,1.8227,1.8314,1.8365,1.844,1.8521,1.8594,1.8694,1.8781,1.8874,1.8966,1.9005,1.903,1.9026,1.9025,1.9038,1.9038,1.9021,1.9004,1.9004,1.9004,1.9004,1.9004,1.9004,1.7895,1.7971,1.802,1.813,1.8193,1.8277,1.8323,1.8388,1.8453,1.8561,1.8632,1.8692,1.8778,1.8877,1.8959,1.8984,1.9015,1.9005,1.9037,1.9035,1.9038,1.9041,1.9026,1.9011,1.9011,1.9032,1.9032,1.9032]},{"header":{"parameterUnit":"m.s-1","parameterCategory":1,"la1":30.2991,"la2":30.254,"lo1":-89.0895,"lo2":-89.0444,"dx":0.0017,"dy":0.0017,"nx":28,"ny":28,"refTime":"2023-01-09T03:00:00:Z","depth":0,"parameterNumber":3,"parameterNumberName":"V-component_of_WINDS"},"data":[0,0,0,0,0,0,0,0,0,0,0,0,0,0,0,0,0,0,0,0,0,0,0,0,0,0,0,0,0,0,0,0,0,0,0,0,0,0,0,0,0,0,0,0,0,0,0,0,0,0,0,0,0,0,0,0,0,0,0.4246,0.4245,0,0.4227,0.4227,0.4227,0.4231,0.4231,0.4231,0.4232,0.4214,0.4213,0.4212,0,0,0,0,0,0,0,0,0,0,0,0,0,0.4283,0.4282,0.4246,0.4245,0.4245,0.4228,0.4227,0.4227,0.4231,0.4231,0.4232,0.4232,0.4214,0.4213,0.4212,0,0,0,0,0,0,0,0,0,0,0,0,0,0.4266,0.4282,0.4246,0.4245,0.4245,0.4228,0.4227,0.4227,0.4231,0.4231,0.4232,0.4232,0.4214,0.4213,0.4212,0.4195,0,0,0.4209,0.4208,0,0,0,0,0,0,0,0,0.4267,0.4264,0.4245,0.4245,0.4245,0.4232,0.4234,0.4216,0.423,0.4236,0.4232,0.4232,0.4219,0.4218,0.4213,0.4194,0.4193,0.4208,0.4208,0.4207,0.4207,0,0,0,0,0,0,0,0.4268,0.4265,0.4238,0.4245,0.4244,0.4245,0.4243,0.423,0.4225,0.4236,0.4236,0.4233,0.4219,0.4215,0.4213,0.4193,0.4208,0.4207,0.4207,0.4206,0.4157,0.4157,0,0,0,0,0,0,0.4269,0.4266,0.4239,0.4238,0.4257,0.4244,0.4242,0.4235,0.4225,0.4224,0.4233,0.4234,0.4216,0.4214,0.4212,0.4191,0.4207,0.4206,0.4205,0.4158,0.4157,0.4156,0,0,0,0,0,0,0.427,0.4267,0.424,0.4252,0.4249,0.4243,0.4236,0.4235,0.423,0.4223,0.4223,0.4229,0.4217,0.4214,0.4199,0.419,0.4206,0.4205,0.4159,0.4158,0.4157,0.4148,0,0,0,0,0,0,0.4271,0.4267,0.4261,0.4252,0.4248,0.4227,0.4235,0.4234,0.4228,0.4229,0.422,0.4219,0.4217,0.4201,0.4198,0.4189,0.4204,0.4159,0.4158,0.4157,0.4149,0.4147,0.4145,0,0,0,0,0,0.4273,0.426,0.4261,0.4257,0.424,0.4226,0.4224,0.4222,0.4227,0.4221,0.4216,0.4219,0.4192,0.4199,0.4196,0.4187,0.416,0.4158,0.4157,0.415,0.4148,0.4145,0,0,0,0,0,0,0.4269,0.4259,0.426,0.4243,0.4236,0.4227,0.4219,0.422,0.4211,0.4212,0.421,0.4208,0.4192,0.4188,0.4196,0.4169,0.4176,0.4174,0.4172,0.417,0.4168,0.4169,0.4203,0,0,0,0,0,0.4266,0.4255,0.4247,0.4234,0.423,0.4225,0.4219,0.4218,0.421,0.4207,0.4201,0.4193,0.4183,0.4176,0.4166,0.4148,0.4146,0.414,0.4138,0.4137,0.4135,0.4124,0.4122,0.4152,0.4152,0.4152,0,0,0.426,0.4253,0.4247,0.4233,0.4227,0.4216,0.4222,0.4211,0.4202,0.4205,0.419,0.4185,0.4176,0.4159,0.4152,0.4156,0.4126,0.4135,0.4134,0.4133,0.4123,0.412,0.4117,0.4151,0.4151,0.4151,0,0,0.4244,0.4238,0.4226,0.4219,0.4209,0.4206,0.4203,0.4193,0.419,0.4175,0.4176,0.4166,0.4148,0.4142,0.4136,0.4115,0.4117,0.4112,0.4102,0.4091,0.4089,0.4087,0.4079,0.4076,0.411,0.411,0.411,0,0.4239,0.4222,0.4219,0.4207,0.42,0.4201,0.4188,0.4182,0.417,0.4165,0.4169,0.4145,0.414,0.4121,0.4115,0.4111,0.4107,0.4113,0.4089,0.4087,0.4085,0.4077,0.4074,0.4109,0.4109,0.4109,0.411,0,0.4215,0.4203,0.4195,0.4182,0.4174,0.4161,0.4156,0.4149,0.4148,0.4144,0.4127,0.412,0.4108,0.4103,0.4103,0.4084,0.4086,0.409,0.4098,0.4082,0.4074,0.4071,0.4109,0.4109,0.4109,0.4109,0,0,0.4198,0.4182,0.4179,0.4172,0.4161,0.4152,0.4138,0.4126,0.4119,0.411,0.4099,0.4083,0.4086,0.4079,0.4077,0.4068,0.4051,0.4073,0.4072,0.4069,0.4029,0.4026,0.4023,0.4052,0.4051,0.4051,0.4029,0,0.418,0.4157,0.4154,0.4133,0.4122,0.4122,0.411,0.4101,0.4097,0.4086,0.4081,0.4069,0.4074,0.407,0.4061,0.4055,0.4043,0.4057,0.4041,0.4041,0.4044,0.4019,0.4017,0.3997,0.4026,0.4026,0.4026,0,0.4158,0.4147,0.4125,0.4113,0.4109,0.4098,0.4086,0.4076,0.4066,0.4063,0.4054,0.4053,0.4039,0.4047,0.4027,0.4036,0.4029,0.4026,0.4025,0.4023,0.4032,0.4017,0.3991,0.3988,0.4021,0.4022,0.4022,0,0.4146,0.4126,0.4111,0.4105,0.4091,0.4084,0.4078,0.4068,0.406,0.4049,0.4044,0.4032,0.4025,0.4015,0.4011,0.4017,0.3991,0.3998,0.3988,0.3988,0.3983,0.3983,0.3955,0.3978,0.3978,0.3978,0.3979,0,0.4127,0.4114,0.4105,0.4095,0.408,0.4075,0.406,0.4054,0.4045,0.4034,0.4033,0.4022,0.4017,0.4005,0.4002,0.3985,0.3982,0.3979,0.3978,0.3979,0.398,0.3975,0.3977,0.3978,0.3978,0.3978,0.3978,0,0.4113,0.4106,0.4089,0.4077,0.4073,0.4062,0.4052,0.4042,0.4036,0.4022,0.4018,0.401,0.3996,0.3991,0.3974,0.3971,0.3952,0.3953,0.3956,0.3955,0.3945,0.3946,0.3913,0.3908,0.3935,0.3934,0.3934,0,0.4101,0.4091,0.4077,0.4069,0.4062,0.405,0.4042,0.4036,0.4028,0.4014,0.4006,0.3992,0.398,0.3958,0.395,0.3937,0.3937,0.3926,0.3935,0.3936,0.3936,0.3937,0.3936,0.3925,0.3925,0.3924,0.3924,0,0.4081,0.4078,0.4066,0.4052,0.4042,0.4032,0.4021,0.4015,0.4007,0.3998,0.3983,0.3974,0.3956,0.3942,0.3928,0.3922,0.3921,0.3921,0.3918,0.3919,0.3921,0.3919,0.3951,0.3922,0.3922,0.3923,0.3923,0.3923,0.4068,0.4058,0.4046,0.4032,0.4023,0.4013,0.4003,0.3996,0.3983,0.3968,0.3966,0.395,0.3938,0.3919,0.3912,0.3899,0.3902,0.3898,0.3897,0.3895,0.3895,0.3923,0.3897,0.3897,0.3897,0.3897,0.3897,0,0.4047,0.4039,0.4026,0.4011,0.4,0.4,0.3988,0.3979,0.3965,0.3954,0.3942,0.3925,0.391,0.3901,0.3887,0.3878,0.3878,0.3875,0.3875,0.3874,0.3893,0.3897,0.3875,0.3875,0.3875,0.3875,0.3875,0.3875,0.4035,0.4018,0.4013,0.3991,0.3984,0.3968,0.3961,0.3951,0.3942,0.3923,0.3911,0.3904,0.3894,0.3878,0.3865,0.3862,0.3857,0.3854,0.3851,0.387,0.3872,0.3875,0.3878,0.3853,0.3853,0.3833,0.3833,0.3832]}]]